Tracking 19575 objects as of 19-Feb-2019
HD Live streaming from Space Station
objects crossing your sky now

USA 274 DEB

Track USA 274 DEB now!
10-day predictions


NORAD ID: 42065
Int'l Code: 2017-011B
Perigee: 1,065.6 km
Apogee: 1,161.4 km
Inclination: 63.4 °
Period: 107.4 minutes
Semi major axis: 7484 km
RCS: Unknown
Launch date: March 1, 2017
Source: United States (US)
Launch site: AIR FORCE WESTERN TEST RANGE (AFWTR)

Note: This is SATELLITE DEBRIS
aabbcc
Your satellite tracking list
Your tracking list is empty




NASA's NSSDC Master Catalog

Two Line Element Set (TLE):
1 42065U 17011B   19048.21686309 0.00000000  00000-0  00000-0 0    07
2 42065  63.4388 125.0053 0064000 172.8322 187.1678 13.40776348    03
Source of the keplerian elements: McCants